P/2007 R2 ( Gibbs )

Japanese version
Home page
Updated on December 30, 2007

---------------------------------------------------------------------

* Profile

Discovery Date September 10, 2007
Magnitude 18.2 mag
Discoverer A. R. Gibbs (Catalina Sky Survey)

* Pictures

* Orbital Elements

Epoch 2007 Aug. 8.0 TT = JDT 2454320.5
T 2007 Aug. 26.66870 TT                                 MPC
q   1.4658139            (2000.0)            P               Q
n   0.15456182     Peri.  353.04307     +0.99946393     -0.03251330
a   3.4387550      Node     8.82287     +0.03111422     +0.90683257
e   0.5737371      Incl.    1.43399     +0.01018592     +0.42023514
P   6.38

* Magnitudes Graph

        m1 = 17.5 + 5 log d + 10.0 log r

---------------------------------------------------------------------

The orbital elements are published on M.P.E.C. 2007-W34.
The magnitudes graphs are made with Comet for Windows.

---------------------------------------------------------------------

Copyright(C) Seiichi Yoshida (comet@aerith.net). All rights reserved.